DA1VID Weather Reports


time (UTC)temp
F
wind
direction
speed
knots
gust
knots
rain 1hr
in
rain 24hr
in
rain mn
in
humidity
%
barometer
mb
20260507171518 56 79 3.5 7.0 0.00 0.00 0.00 64 1016.4
20260507170543 56 51 3.5 8.7 0.00 0.00 0.00 64 1016.3
20260507165518 56 97 5.2 10.4 0.00 0.00 0.00 62 1016.3
20260507164525 57 45 2.6 7.8 0.00 0.00 0.00 60 1016.3
20260507163520 57 86 4.3 7.8 0.00 0.00 0.00 61 1016.3
20260507162519 56 82 4.3 8.7 0.00 0.00 0.00 62 1016.2
20260507161522 56 98 5.2 10.4 0.00 0.00 0.00 62 1016.2
20260507160517 57 78 4.3 9.6 0.00 0.00 0.00 62 1016.2
20260507155523 57 91 4.3 8.7 0.00 0.00 0.00 62 1016.1
20260507154519 57 99 6.1 11.3 0.00 0.00 0.00 62 1016.2
20260507153525 59 64 2.6 4.3 0.00 0.00 0.00 61 1016.0
20260507152520 58 75 4.3 9.6 0.00 0.00 0.00 61 1016.0
20260507151516 57 49 3.5 9.6 0.00 0.00 0.00 63 1016.0
20260507150523 59 54 3.5 8.7 0.00 0.00 0.00 61 1015.9
20260507145518 58 49 3.5 8.7 0.00 0.00 0.00 61 1015.9
20260507144523 58 51 3.5 7.0 0.00 0.00 0.00 61 1016.0
20260507143519 58 61 3.5 7.0 0.00 0.00 0.00 63 1015.9
20260507142526 58 85 3.5 7.8 0.00 0.00 0.00 63 1015.9
20260507141521 57 80 4.3 11.3 0.00 0.00 0.00 64 1016.0
20260507140517 58 87 5.2 10.4 0.00 0.00 0.00 62 1016.0
20260507135522 59 64 3.5 8.7 0.00 0.00 0.00 62 1016.1
20260507134539 58 94 7.0 14.8 0.00 0.00 0.00 62 1016.1
20260507133544 59 45 4.3 7.8 0.00 0.00 0.00 63 1016.0
20260507132520 59 65 2.6 6.1 0.00 0.00 0.00 61 1015.9
20260507131516 59 84 3.5 8.7 0.00 0.00 0.00 63 1015.9
20260507130522 58 42 3.5 5.2 0.00 0.00 0.00 62 1016.0
20260507125517 57 81 5.2 10.4 0.00 0.00 0.00 65 1016.0
20260507124523 59 41 3.5 10.4 0.00 0.00 0.00 63 1016.0
20260507123518 59 16 3.5 7.8 0.00 0.00 0.00 62 1016.0
20260507122524 57 24 3.5 7.0 0.00 0.00 0.00 66 1015.9
20260507121520 59 40 3.5 7.8 0.00 0.00 0.00 64 1015.8
20260507120516 57 48 3.5 5.2 0.00 0.00 0.00 66 1015.8
20260507115522 57 14 3.5 5.2 0.00 0.00 0.00 66 1015.8
20260507114517 57 36 3.5 7.0 0.00 0.00 0.00 65 1015.8
20260507113523 58 56 2.6 7.8 0.00 0.00 0.00 65 1015.8
20260507112519 58 4 3.5 7.8 0.00 0.00 0.00 64 1015.7
20260507111525 58 17 2.6 7.0 0.00 0.00 0.00 61 1015.8
20260507110542 57 56 2.6 6.1 0.00 0.00 0.00 64 1015.8
20260507105516 56 19 2.6 6.1 0.00 0.00 0.00 64 1015.7
20260507104542 56 17 2.6 5.2 0.00 0.00 0.00 64 1015.8
20260507103518 56 56 2.6 5.2 0.00 0.00 0.00 64 1015.7
20260507102524 56 41 2.6 6.1 0.00 0.00 0.00 63 1015.6
20260507101520 56 356 3.5 7.8 0.00 0.00 0.00 65 1015.5
20260507100525 55 40 2.6 5.2 0.00 0.00 0.00 66 1015.4
20260507095524 55 68 2.6 8.7 0.00 0.00 0.00 66 1015.5
20260507094520 56 48 2.6 7.8 0.00 0.00 0.00 65 1015.3
20260507093526 55 27 3.5 7.8 0.00 0.00 0.00 66 1015.3
20260507092521 54 50 3.5 7.8 0.00 0.00 0.00 69 1015.3
20260507091527 55 32 4.3 10.4 0.00 0.00 0.00 68 1015.2
20260507090526 55 36 3.5 8.7 0.00 0.00 0.00 71 1015.1
20260507085516 52 43 3.5 7.0 0.00 0.00 0.00 76 1015.1
20260507084521 52 46 3.5 7.0 0.00 0.00 0.00 76 1015.0
20260507083517 53 47 3.5 7.8 0.00 0.00 0.00 76 1014.8
20260507082523 52 47 2.6 4.3 0.00 0.00 0.00 77 1014.8
20260507081519 52 68 2.6 4.3 0.00 0.00 0.00 79 1014.7
20260507080605 53 55 2.6 3.5 0.00 0.00 0.00 77 1014.7
20260507075517 53 62 3.5 7.8 0.00 0.00 0.00 78 1014.5
20260507074524 53 58 2.6 5.2 0.00 0.00 0.00 77 1014.4
20260507073539 53 74 1.7 4.3 0.00 0.00 0.00 78 1014.4
20260507072524 51 74 2.6 5.2 0.00 0.00 0.00 82 1014.3
20260507071520 50 70 1.7 3.5 0.00 0.00 0.00 85 1014.3
20260507070515 49 350 1.7 4.3 0.00 0.00 0.00 85 1014.2
20260507065522 49 18 1.7 3.5 0.00 0.00 0.00 86 1014.1
20260507064517 48 349 1.7 3.5 0.00 0.00 0.00 87 1014.1
20260507063523 48 33 0.9 2.6 0.00 0.00 0.00 87 1014.0
20260507062519 48 16 1.7 3.5 0.00 0.00 0.00 89 1013.7
20260507061545 47 16 1.7 3.5 0.00 0.00 0.00 90 1013.8
20260507060520 46 354 2.6 6.1 0.00 0.00 0.00 90 1013.6
20260507055516 46 353 1.7 4.3 0.00 0.00 0.00 91 1013.5
20260507054522 46 15 1.7 4.3 0.00 0.00 0.00 91 1013.5
20260507053518 46 358 2.6 4.3 0.00 0.00 0.00 92 1013.4
20260507052523 46 353 1.7 5.2 0.00 0.00 0.00 92 1013.4
20260507051519 46 336 2.6 5.2 0.00 0.00 0.00 92 1013.2
20260507050525 46 352 1.7 3.5 0.00 0.00 0.00 92 1013.2
20260507045521 45 323 2.6 5.2 0.00 0.00 0.00 92 1012.9
20260507044537 45 360 1.7 5.2 0.00 0.00 0.00 92 1012.8
20260507043523 45 337 1.7 3.5 0.00 0.00 0.00 92 1012.8
20260507042518 45 344 1.7 4.3 0.00 0.00 0.00 92 1012.7
20260507041524 45 339 2.6 4.3 0.00 0.00 0.00 93 1012.7
20260507040520 45 13 0.9 2.6 0.00 0.00 0.00 93 1012.7